Weather at Belleharbour Heliport

Public forecast

Using degrees Fahrenheit for public forecast. Weather courtesy of forecast.io.

Closest aviation weather report (METAR) to Belleharbour Heliport

Closest report is Hampton Roads Executive Airport, 5.0 nm (9.2 km) S. Retrieved 2021/07/28 17:25 UTC (20 minutes ago):

KPVG 281725Z AUTO VRB04KT 10SM VCTS BKN048 BKN075 32/23 A2995 RMK AO2 LTG DSNT ALQDS TSB19 PNO

Closest aviation forecast (TAF) to Belleharbour Heliport

Forecast is more than 12 hours old.

Closest forecast is Norfolk Naval Station (Chambers Field), 8.9 nm (16.5 km) ENE. Retrieved 2014/12/02 15:51 UTC (7 years ago):

TAF TAF KNGU 021500Z 0215/0315 02012KT 8000 BR OVC008 QNH3033INS TEMPO 0215/0221 2400 -DZ BR OVC004 FM022300 35007KT 8000 BR BKN009 OVC020 QNH3037INS FM030700 24005KT 9000 BR SCT008 SCT020 BKN050 QNH3030INS FM031200 22006KT 9000 BR SCT008 BKN020 OVC050 QNH3028INS TX10/0215Z TN07/0303Z FN20000